View from above orbital plane
|
View from above satellite
|
Ground track
|
The orbit data is extracted from the following two-line orbital elements,
1 39444U 13066AE 19348.09093135 .00000204 00000-0 31345-4 0 9991
2 39444 97.5574 353.6617 0058519 160.7770 199.5670 14.82026277326355
Epoch (UTC): | 14 December 2019 02:10:56 |
Eccentricity: | 0.0058519 |
inclination: | 97.5574° |
perigee height: | 582 km |
apogee height: | 664 km |
right ascension of ascending node: | 353.6617° |
argument of perigee: | 160.7770° |
revolutions per day: | 14.82026277 |
mean anomaly at epoch: | 199.5670° |
orbit number at epoch: | 32635 |
The dashed part of the orbit path shows where the satellite is in the earth's shadow,
|
|